[Date Prev][Date Next][Thread Prev][Thread Next] - [Date Index][Thread Index][Author Index]
2 Line ISS Keps 1-17
- Subject: [sarex] 2 Line ISS Keps 1-17
- From: "Dave Larsen PhD" <doc@xxxxxxxxxxx>
- Date: Sat, 17 Jan 2004 03:32:39 -0800
ISS
1 25544U 98067A 04017.26396816 .00023680 00000-0 23198-3 0 281
2 25544 51.6303 18.8958 0007895 59.8214 57.4211 15.65948576294480
----
Via the sarex mailing list at AMSAT.ORG courtesy of AMSAT-NA.
To unsubscribe, send "unsubscribe sarex" to Majordomo@amsat.org
AMSAT Home